{"data":{"norad_id":64538,"intl_designator":"2025-135L","name":"IOD-2","alt_names":[],"object_type":"PAYLOAD","status":"ACTIVE","operator":null,"country":"SPN","launch_date":"2025-06-23","launch_site_code":"AFWTR","launch_vehicle":null,"mission":null,"orbit_class":"UNKNOWN","rcs_meters":null,"size_class":null,"mass_kg":null,"dimensions":null,"purposes":[],"wikipedia_slug":null,"has_3d_model":false,"image_url":null,"decayed_at":null,"tle_current":{"epoch":"2026-09-21T20:16:04.617696Z","epoch_age_seconds":66171,"freshness":"FRESH","line1":"1 64538U 25135L   26264.84449789  .00002696  00000+0  12475-3 0  9999","line2":"2 64538  97.4776  18.6343 0004345 180.8197 179.3032 15.20997136 69512","mean_motion":15.20997136,"eccentricity":0.0004345,"inclination_deg":97.4776,"raan_deg":18.6343,"arg_perigee_deg":180.8197,"mean_anomaly_deg":179.3032,"bstar":0.00012475,"rev_number":6951,"period_min":94.674734482866,"perigee_km":499.84183657715,"apogee_km":505.8213983057,"semimajor_km":6880.9686174414,"source":"CELESTRAK","updated_at":"2026-09-22T09:00:29.840657Z"}}}